#Datum;Uhrzeit;WR;Pac;DaySum;Status;WR;Pac;DaySum;Status;Pdc1;Udc;Temp;WR;Pac;DaySum;Status;Pdc1;Udc;Temp;WR;Pac;DaySum;Status;Pdc1;Udc;Temp;WR;Pac;DaySum;Status;Pdc1;Pdc2;Udc1;Udc2;Temp;WR;Pac;DaySum;Status;Pdc1;Pdc2;Udc1;Udc2;Temp;WR;Pac;DaySum;Status;Pdc1;Udc;Temp;WR;Pac;DaySum;Status;Pdc1;Udc;Temp;WR;Pac;DaySum;Status;Pdc1;Udc;Temp
23.01.18;23:55:00;1;604;10946;0;2;0;1726;0;0;0;0;3;0;978;0;0;0;0;4;0;1273;0;0;0;0;5;0;2272;0;0;0;0;0;0;6;0;1899;0;0;0;0;0;0;7;0;1761;0;0;0;0;8;0;1785;0;0;0;0;9;0;881;0;0;0;0
23.01.18;23:50:00;1;191;10903;0;2;0;1726;0;0;0;0;3;0;978;0;0;0;0;4;0;1273;0;0;0;0;5;0;2272;0;0;0;0;0;0;6;0;1899;0;0;0;0;0;0;7;0;1761;0;0;0;0;8;0;1785;0;0;0;0;9;0;881;0;0;0;0
23.01.18;23:45:00;1;404;10887;0;2;0;1726;0;0;0;0;3;0;978;0;0;0;0;4;0;1273;0;0;0;0;5;0;2272;0;0;0;0;0;0;6;0;1899;0;0;0;0;0;0;7;0;1761;0;0;0;0;8;0;1785;0;0;0;0;9;0;881;0;0;0;0
23.01.18;23:40:00;1;191;10842;0;2;0;1726;0;0;0;0;3;0;978;0;0;0;0;4;0;1273;0;0;0;0;5;0;2272;0;0;0;0;0;0;6;0;1899;0;0;0;0;0;0;7;0;1761;0;0;0;0;8;0;1785;0;0;0;0;9;0;881;0;0;0;0
23.01.18;23:35:00;1;395;10826;0;2;0;1726;0;0;0;0;3;0;978;0;0;0;0;4;0;1273;0;0;0;0;5;0;2272;0;0;0;0;0;0;6;0;1899;0;0;0;0;0;0;7;0;1761;0;0;0;0;8;0;1785;0;0;0;0;9;0;881;0;0;0;0
23.01.18;23:30:00;1;551;10786;0;2;0;1726;0;0;0;0;3;0;978;0;0;0;0;4;0;1273;0;0;0;0;5;0;2272;0;0;0;0;0;0;6;0;1899;0;0;0;0;0;0;7;0;1761;0;0;0;0;8;0;1785;0;0;0;0;9;0;881;0;0;0;0
23.01.18;23:25:00;1;250;10766;0;2;0;1726;0;0;0;0;3;0;978;0;0;0;0;4;0;1273;0;0;0;0;5;0;2272;0;0;0;0;0;0;6;0;1899;0;0;0;0;0;0;7;0;1761;0;0;0;0;8;0;1785;0;0;0;0;9;0;881;0;0;0;0
23.01.18;23:20:00;1;453;10745;0;2;0;1726;0;0;0;0;3;0;978;0;0;0;0;4;0;1273;0;0;0;0;5;0;2272;0;0;0;0;0;0;6;0;1899;0;0;0;0;0;0;7;0;1761;0;0;0;0;8;0;1785;0;0;0;0;9;0;881;0;0;0;0
23.01.18;23:15:00;1;290;10695;0;2;0;1726;0;0;0;0;3;0;978;0;0;0;0;4;0;1273;0;0;0;0;5;0;2272;0;0;0;0;0;0;6;0;1899;0;0;0;0;0;0;7;0;1761;0;0;0;0;8;0;1785;0;0;0;0;9;0;881;0;0;0;0
23.01.18;23:10:00;1;651;10671;0;2;0;1726;0;0;0;0;3;0;978;0;0;0;0;4;0;1273;0;0;0;0;5;0;2272;0;0;0;0;0;0;6;0;1899;0;0;0;0;0;0;7;0;1761;0;0;0;0;8;0;1785;0;0;0;0;9;0;881;0;0;0;0
23.01.18;23:05:00;1;300;10617;0;2;0;1726;0;0;0;0;3;0;978;0;0;0;0;4;0;1273;0;0;0;0;5;0;2272;0;0;0;0;0;0;6;0;1899;0;0;0;0;0;0;7;0;1761;0;0;0;0;8;0;1785;0;0;0;0;9;0;881;0;0;0;0
23.01.18;23:00:00;1;786;10592;0;2;0;1726;0;0;0;0;3;0;978;0;0;0;0;4;0;1273;0;0;0;0;5;0;2272;0;0;0;0;0;0;6;0;1899;0;0;0;0;0;0;7;0;1761;0;0;0;0;8;0;1785;0;0;0;0;9;0;881;0;0;0;0
23.01.18;22:55:00;1;253;10542;0;2;0;1726;0;0;0;0;3;0;978;0;0;0;0;4;0;1273;0;0;0;0;5;0;2272;2;0;0;0;0;0;6;0;1899;2;0;0;0;0;0;7;0;1761;0;0;0;0;8;0;1785;0;0;0;0;9;0;881;0;0;0;0
23.01.18;22:50:00;1;192;10522;0;2;0;1726;0;0;0;0;3;0;978;0;0;0;0;4;0;1273;0;0;0;0;5;0;2272;2;0;0;0;0;0;6;0;1899;2;0;0;0;0;0;7;0;1761;0;0;0;0;8;0;1785;0;0;0;0;9;0;881;0;0;0;0
23.01.18;22:45:00;1;399;10499;0;2;0;1726;0;0;0;0;3;0;978;0;0;0;0;4;0;1273;0;0;0;0;5;0;2272;2;0;0;0;0;0;6;0;1899;2;0;0;0;0;0;7;0;1761;0;0;0;0;8;0;1785;0;0;0;0;9;0;881;0;0;0;0
23.01.18;22:40:00;1;225;10461;0;2;0;1726;0;0;0;0;3;0;978;0;0;0;0;4;0;1273;0;0;0;0;5;0;2272;2;0;0;0;0;0;6;0;1899;2;0;0;0;0;0;7;0;1761;0;0;0;0;8;0;1785;0;0;0;0;9;0;881;0;0;0;0
23.01.18;22:35:00;1;683;10441;0;2;0;1726;0;0;0;0;3;0;978;0;0;0;0;4;0;1273;0;0;0;0;5;0;2272;2;0;0;0;0;0;6;0;1899;2;0;0;0;0;0;7;0;1761;0;0;0;0;8;0;1785;0;0;0;0;9;0;881;0;0;0;0
23.01.18;22:30:00;1;288;10392;0;2;0;1726;0;0;0;0;3;0;978;0;0;0;0;4;0;1273;0;0;0;0;5;0;2272;2;0;0;0;0;0;6;0;1899;2;0;0;0;0;0;7;0;1761;0;0;0;0;8;0;1785;0;0;0;0;9;0;881;0;0;0;0
23.01.18;22:25:00;1;623;10368;0;2;0;1726;0;0;0;0;3;0;978;0;0;0;0;4;0;1273;0;0;0;0;5;0;2272;2;0;0;0;0;0;6;0;1899;2;0;0;0;0;0;7;0;1761;0;0;0;0;8;0;1785;0;0;0;0;9;0;881;0;0;0;0
23.01.18;22:20:00;1;202;10321;0;2;0;1726;0;0;0;0;3;0;978;0;0;0;0;4;0;1273;0;0;0;0;5;0;2272;2;0;0;0;0;0;6;0;1899;2;0;0;0;0;0;7;0;1761;0;0;0;0;8;0;1785;0;0;0;0;9;0;881;0;0;0;0
23.01.18;22:15:00;1;425;10304;0;2;0;1726;0;0;0;0;3;0;978;0;0;0;0;4;0;1273;0;0;0;0;5;0;2272;2;0;0;0;0;0;6;0;1899;2;0;0;0;0;0;7;0;1761;0;0;0;0;8;0;1785;0;0;0;0;9;0;881;0;0;0;0
23.01.18;22:10:00;1;227;10257;0;2;0;1726;0;0;0;0;3;0;978;0;0;0;0;4;0;1273;0;0;0;0;5;0;2272;2;0;0;0;0;0;6;0;1899;2;0;0;0;0;0;7;0;1761;0;0;0;0;8;0;1785;0;0;0;0;9;0;881;0;0;0;0
23.01.18;22:05:00;1;530;10239;0;2;0;1726;0;0;0;0;3;0;978;0;0;0;0;4;0;1273;0;0;0;0;5;0;2272;2;0;0;0;0;0;6;0;1899;2;0;0;0;0;0;7;0;1761;0;0;0;0;8;0;1785;0;0;0;0;9;0;881;0;0;0;0
23.01.18;22:00:00;1;188;10193;0;2;0;1726;0;0;0;0;3;0;978;0;0;0;0;4;0;1273;0;0;0;0;5;0;2272;2;0;0;0;0;0;6;0;1899;2;0;0;0;0;0;7;0;1761;0;0;0;0;8;0;1785;0;0;0;0;9;0;881;0;0;0;0
23.01.18;21:55:00;1;442;10177;0;2;0;1726;0;0;0;0;3;0;978;0;0;0;0;4;0;1273;0;0;0;0;5;0;2272;2;0;0;0;0;0;6;0;1899;2;0;0;0;0;0;7;0;1761;0;0;0;0;8;0;1785;0;0;0;0;9;0;881;0;0;0;0
23.01.18;21:50:00;1;188;10134;0;2;0;1726;0;0;0;0;3;0;978;0;0;0;0;4;0;1273;0;0;0;0;5;0;2272;2;0;0;0;0;0;6;0;1899;2;0;0;0;0;0;7;0;1761;0;0;0;0;8;0;1785;0;0;0;0;9;0;881;0;0;0;0
23.01.18;21:45:00;1;391;10118;0;2;0;1726;0;0;0;0;3;0;978;0;0;0;0;4;0;1273;0;0;0;0;5;0;2272;2;0;0;0;0;0;6;0;1899;2;0;0;0;0;0;7;0;1761;0;0;0;0;8;0;1785;0;0;0;0;9;0;881;0;0;0;0
23.01.18;21:40:00;1;188;10074;0;2;0;1726;0;0;0;0;3;0;978;0;0;0;0;4;0;1273;0;0;0;0;5;0;2272;2;0;0;0;0;0;6;0;1899;2;0;0;0;0;0;7;0;1761;0;0;0;0;8;0;1785;0;0;0;0;9;0;881;0;0;0;0
23.01.18;21:35:00;1;388;10059;0;2;0;1726;0;0;0;0;3;0;978;0;0;0;0;4;0;1273;0;0;0;0;5;0;2272;2;0;0;0;0;0;6;0;1899;2;0;0;0;0;0;7;0;1761;0;0;0;0;8;0;1785;0;0;0;0;9;0;881;0;0;0;0
23.01.18;21:30:00;1;552;10019;0;2;0;1726;0;0;0;0;3;0;978;0;0;0;0;4;0;1273;0;0;0;0;5;0;2272;2;0;0;0;0;0;6;0;1899;2;0;0;0;0;0;7;0;1761;0;0;0;0;8;0;1785;0;0;0;0;9;0;881;0;0;0;0
23.01.18;21:25:00;1;364;9997;0;2;0;1726;0;0;0;0;3;0;978;0;0;0;0;4;0;1273;0;0;0;0;5;0;2272;2;0;0;0;0;0;6;0;1899;2;0;0;0;0;0;7;0;1761;0;0;0;0;8;0;1785;0;0;0;0;9;0;881;0;0;0;0
23.01.18;21:20:00;1;651;9950;0;2;0;1726;0;0;0;0;3;0;978;0;0;0;0;4;0;1273;0;0;0;0;5;0;2272;2;0;0;0;0;0;6;0;1899;2;0;0;0;0;0;7;0;1761;0;0;0;0;8;0;1785;0;0;0;0;9;0;881;0;0;0;0
23.01.18;21:15:00;1;311;9918;0;2;0;1726;0;0;0;0;3;0;978;0;0;0;0;4;0;1273;0;0;0;0;5;0;2272;2;0;0;0;0;0;6;0;1899;2;0;0;0;0;0;7;0;1761;0;0;0;0;8;0;1785;0;0;0;0;9;0;881;0;0;0;0
23.01.18;21:10:00;1;612;9877;0;2;0;1726;0;0;0;0;3;0;978;0;0;0;0;4;0;1273;0;0;0;0;5;0;2272;2;0;0;0;0;0;6;0;1899;2;0;0;0;0;0;7;0;1761;0;0;0;0;8;0;1785;0;0;0;0;9;0;881;0;0;0;0
23.01.18;21:05:00;1;296;9844;0;2;0;1726;0;0;0;0;3;0;978;0;0;0;0;4;0;1273;0;0;0;0;5;0;2272;2;0;0;0;0;0;6;0;1899;2;0;0;0;0;0;7;0;1761;0;0;0;0;8;0;1785;0;0;0;0;9;0;881;0;0;0;0
23.01.18;21:00:00;1;613;9802;0;2;0;1726;0;0;0;0;3;0;978;0;0;0;0;4;0;1273;0;0;0;0;5;0;2272;2;0;0;0;0;0;6;0;1899;2;0;0;0;0;0;7;0;1761;0;0;0;0;8;0;1785;0;0;0;0;9;0;881;0;0;0;0
23.01.18;20:55:00;1;402;9773;0;2;0;1726;0;0;0;0;3;0;978;0;0;0;0;4;0;1273;0;0;0;0;5;0;2272;2;0;0;0;0;0;6;0;1899;2;0;0;0;0;0;7;0;1761;0;0;0;0;8;0;1785;0;0;0;0;9;0;881;0;0;0;0
23.01.18;20:50:00;1;566;9733;0;2;0;1726;0;0;0;0;3;0;978;0;0;0;0;4;0;1273;0;0;0;0;5;0;2272;2;0;0;0;0;0;6;0;1899;2;0;0;0;0;0;7;0;1761;0;0;0;0;8;0;1785;0;0;0;0;9;0;881;0;0;0;0
23.01.18;20:45:00;1;612;9711;0;2;0;1726;0;0;0;0;3;0;978;0;0;0;0;4;0;1273;0;0;0;0;5;0;2272;2;0;0;0;0;0;6;0;1899;2;0;0;0;0;0;7;0;1761;0;0;0;0;8;0;1785;0;0;0;0;9;0;881;0;0;0;0
23.01.18;20:40:00;1;945;9647;0;2;0;1726;0;0;0;0;3;0;978;0;0;0;0;4;0;1273;0;0;0;0;5;0;2272;2;0;0;0;0;0;6;0;1899;2;0;0;0;0;0;7;0;1761;0;0;0;0;8;0;1785;0;0;0;0;9;0;881;0;0;0;0
23.01.18;20:35:00;1;798;9596;0;2;0;1726;0;0;0;0;3;0;978;0;0;0;0;4;0;1273;0;0;0;0;5;0;2272;2;0;0;0;0;0;6;0;1899;2;0;0;0;0;0;7;0;1761;0;0;0;0;8;0;1785;0;0;0;0;9;0;881;0;0;0;0
23.01.18;20:30:00;1;622;9519;0;2;0;1726;0;0;0;0;3;0;978;0;0;0;0;4;0;1273;0;0;0;0;5;0;2272;2;0;0;0;0;0;6;0;1899;2;0;0;0;0;0;7;0;1761;0;0;0;0;8;0;1785;0;0;0;0;9;0;881;0;0;0;0
23.01.18;20:25:00;1;880;9467;0;2;0;1726;0;0;0;0;3;0;978;0;0;0;0;4;0;1273;0;0;0;0;5;0;2272;2;0;0;0;0;0;6;0;1899;2;0;0;0;0;0;7;0;1761;0;0;0;0;8;0;1785;0;0;0;0;9;0;881;0;0;0;0
23.01.18;20:20:00;1;684;9382;0;2;0;1726;0;0;0;0;3;0;978;0;0;0;0;4;0;1273;0;0;0;0;5;0;2272;2;0;0;0;0;0;6;0;1899;2;0;0;0;0;0;7;0;1761;0;0;0;0;8;0;1785;0;0;0;0;9;0;881;0;0;0;0
23.01.18;20:15:00;1;843;9325;0;2;0;1726;0;0;0;0;3;0;978;0;0;0;0;4;0;1273;0;0;0;0;5;0;2272;2;0;0;0;0;0;6;0;1899;2;0;0;0;0;0;7;0;1761;0;0;0;0;8;0;1785;0;0;0;0;9;0;881;0;0;0;0
23.01.18;20:10:00;1;641;9243;0;2;0;1726;0;0;0;0;3;0;978;0;0;0;0;4;0;1273;0;0;0;0;5;0;2272;2;0;0;0;0;0;6;0;1899;2;0;0;0;0;0;7;0;1761;0;0;0;0;8;0;1785;0;0;0;0;9;0;881;0;0;0;0
23.01.18;20:05:00;1;878;9189;0;2;0;1726;0;0;0;0;3;0;978;0;0;0;0;4;0;1273;0;0;0;0;5;0;2272;2;0;0;0;0;0;6;0;1899;2;0;0;0;0;0;7;0;1761;0;0;0;0;8;0;1785;0;0;0;0;9;0;881;0;0;0;0
23.01.18;20:00:00;1;640;9108;0;2;0;1726;0;0;0;0;3;0;978;0;0;0;0;4;0;1273;0;0;0;0;5;0;2272;2;0;0;0;0;0;6;0;1899;2;0;0;0;0;0;7;0;1761;0;0;0;0;8;0;1785;0;0;0;0;9;0;881;0;0;0;0
23.01.18;19:55:00;1;843;9055;0;2;0;1726;0;0;0;0;3;0;978;0;0;0;0;4;0;1273;0;0;0;0;5;0;2272;2;0;0;0;0;0;6;0;1899;2;0;0;0;0;0;7;0;1761;0;0;0;0;8;0;1785;0;0;0;0;9;0;881;0;0;0;0
23.01.18;19:50:00;1;605;8974;0;2;0;1726;0;0;0;0;3;0;978;0;0;0;0;4;0;1273;0;0;0;0;5;0;2272;2;0;0;0;0;0;6;0;1899;2;0;0;0;0;0;7;0;1761;0;0;0;0;8;0;1785;0;0;0;0;9;0;881;0;0;0;0
23.01.18;19:45:00;1;1104;8928;0;2;0;1726;0;0;0;0;3;0;978;0;0;0;0;4;0;1273;0;0;0;0;5;0;2272;2;0;0;0;0;0;6;0;1899;2;0;0;0;0;0;7;0;1761;0;0;0;0;8;0;1785;0;0;0;0;9;0;881;0;0;0;0
23.01.18;19:40:00;1;493;8857;0;2;0;1726;0;0;0;0;3;0;978;0;0;0;0;4;0;1273;0;0;0;0;5;0;2272;2;0;0;0;0;0;6;0;1899;2;0;0;0;0;0;7;0;1761;0;0;0;0;8;0;1785;0;0;0;0;9;0;881;0;0;0;0
23.01.18;19:35:00;1;905;8816;0;2;0;1726;0;0;0;0;3;0;978;0;0;0;0;4;0;1273;0;0;0;0;5;0;2272;2;0;0;0;0;0;6;0;1899;2;0;0;0;0;0;7;0;1761;0;0;0;0;8;0;1785;0;0;0;0;9;0;881;0;0;0;0
23.01.18;19:30:00;1;598;8748;0;2;0;1726;0;0;0;0;3;0;978;0;0;0;0;4;0;1273;0;0;0;0;5;0;2272;2;0;0;0;0;0;6;0;1899;2;0;0;0;0;0;7;0;1761;0;0;0;0;8;0;1785;0;0;0;0;9;0;881;0;0;0;0
23.01.18;19:25:00;1;1439;8697;0;2;0;1726;0;0;0;0;3;0;978;0;0;0;0;4;0;1273;0;0;0;0;5;0;2272;2;0;0;0;0;0;6;0;1899;2;0;0;0;0;0;7;0;1761;0;0;0;0;8;0;1785;0;0;0;0;9;0;881;0;0;0;0
23.01.18;19:20:00;1;656;8613;0;2;0;1726;0;0;0;0;3;0;978;0;0;0;0;4;0;1273;0;0;0;0;5;0;2272;2;0;0;0;0;0;6;0;1899;2;0;0;0;0;0;7;0;1761;0;0;0;0;8;0;1785;0;0;0;0;9;0;881;0;0;0;0
23.01.18;19:15:00;1;744;8565;0;2;0;1726;0;0;0;0;3;0;978;0;0;0;0;4;0;1273;0;0;0;0;5;0;2272;2;0;0;0;0;0;6;0;1899;2;0;0;0;0;0;7;0;1761;0;0;0;0;8;0;1785;0;0;0;0;9;0;881;0;0;0;0
23.01.18;19:10:00;1;562;8485;0;2;0;1726;0;0;0;0;3;0;978;0;0;0;0;4;0;1273;0;0;0;0;5;0;2272;2;0;0;0;0;0;6;0;1899;2;0;0;0;0;0;7;0;1761;0;0;0;0;8;0;1785;0;0;0;0;9;0;881;0;0;0;0
23.01.18;19:05:00;1;502;8441;0;2;0;1726;0;0;0;0;3;0;978;0;0;0;0;4;0;1273;0;0;0;0;5;0;2272;2;0;0;0;0;0;6;0;1899;2;0;0;0;0;0;7;0;1761;0;0;0;0;8;0;1785;0;0;0;0;9;0;881;0;0;0;0
23.01.18;19:00:00;1;509;8399;0;2;0;1726;0;0;0;0;3;0;978;0;0;0;0;4;0;1273;0;0;0;0;5;0;2272;2;0;0;0;0;0;6;0;1899;2;0;0;0;0;0;7;0;1761;0;0;0;0;8;0;1785;0;0;0;0;9;0;881;0;0;0;0
23.01.18;18:55:00;1;1049;8356;0;2;0;1726;0;0;0;0;3;0;978;0;0;0;0;4;0;1273;0;0;0;0;5;0;2272;2;0;0;0;0;0;6;0;1899;2;0;0;0;0;0;7;0;1761;0;0;0;0;8;0;1785;0;0;0;0;9;0;881;0;0;0;0
23.01.18;18:50:00;1;443;8287;0;2;0;1726;0;0;0;0;3;0;978;0;0;0;0;4;0;1273;0;0;0;0;5;0;2272;2;0;0;0;0;0;6;0;1899;2;0;0;0;0;0;7;0;1761;0;0;0;0;8;0;1785;0;0;0;0;9;0;881;0;0;0;0
23.01.18;18:45:00;1;443;8250;0;2;0;1726;0;0;0;0;3;0;978;0;0;0;0;4;0;1273;0;0;0;0;5;0;2272;2;0;0;0;0;0;6;0;1899;2;0;0;0;0;0;7;0;1761;0;0;0;0;8;0;1785;0;0;0;0;9;0;881;0;0;0;0
23.01.18;18:40:00;1;979;8213;0;2;0;1726;0;0;0;0;3;0;978;0;0;0;0;4;0;1273;0;0;0;0;5;0;2272;2;0;0;0;0;0;6;0;1899;2;0;0;0;0;0;7;0;1761;0;0;0;0;8;0;1785;0;0;0;0;9;0;881;0;0;0;0
23.01.18;18:35:00;1;472;8142;0;2;0;1726;0;0;0;0;3;0;978;0;0;0;0;4;0;1273;0;0;0;0;5;0;2272;2;0;0;0;0;0;6;0;1899;2;0;0;0;0;0;7;0;1761;0;0;0;0;8;0;1785;0;0;0;0;9;0;881;0;0;0;0
23.01.18;18:30:00;1;485;8102;0;2;0;1726;0;0;0;0;3;0;978;0;0;0;0;4;0;1273;0;0;0;0;5;0;2272;2;0;0;0;0;0;6;0;1899;2;0;0;0;0;0;7;0;1761;0;0;0;0;8;0;1785;0;0;0;0;9;0;881;0;0;0;0
23.01.18;18:25:00;1;894;8061;0;2;0;1726;0;0;0;0;3;0;978;0;0;0;0;4;0;1273;0;0;0;0;5;0;2272;2;0;0;0;0;0;6;0;1899;2;0;0;0;0;0;7;0;1761;0;0;0;0;8;0;1785;0;0;0;0;9;0;881;0;0;0;0
23.01.18;18:20:00;1;452;7986;0;2;0;1726;0;0;0;0;3;0;978;0;0;0;0;4;0;1273;0;0;0;0;5;0;2272;2;0;0;0;0;0;6;0;1899;2;0;0;0;0;0;7;0;1761;0;0;0;0;8;0;1785;0;0;0;0;9;0;881;0;0;0;0
23.01.18;18:15:00;1;443;7949;0;2;0;1726;0;0;0;0;3;0;978;0;0;0;0;4;0;1273;0;0;0;0;5;0;2272;2;0;0;0;0;0;6;0;1899;2;0;0;0;0;0;7;0;1761;0;0;0;0;8;0;1785;0;0;0;0;9;0;881;0;0;0;0
23.01.18;18:10:00;1;802;7912;0;2;0;1726;0;0;0;0;3;0;978;0;0;0;0;4;0;1273;0;0;0;0;5;0;2272;2;0;0;0;0;0;6;0;1899;2;0;0;0;0;0;7;0;1761;0;0;0;0;8;0;1785;0;0;0;0;9;0;881;0;0;0;0
23.01.18;18:05:00;1;444;7843;0;2;0;1726;0;0;0;0;3;0;978;0;0;0;0;4;0;1273;0;0;0;0;5;0;2272;2;0;0;0;0;0;6;0;1899;2;0;0;0;0;0;7;0;1761;0;0;0;0;8;0;1785;0;0;0;0;9;0;881;0;0;0;0
23.01.18;18:00:00;1;443;7806;0;2;0;1726;0;0;0;0;3;0;978;0;0;0;0;4;0;1273;0;0;0;0;5;0;2272;2;0;0;0;0;0;6;0;1899;2;0;0;0;0;0;7;0;1761;0;0;0;0;8;0;1785;0;0;0;0;9;0;881;0;0;0;0
23.01.18;17:55:00;1;861;7769;0;2;0;1726;0;0;0;0;3;0;978;0;0;0;0;4;0;1273;0;0;0;0;5;0;2272;2;0;0;0;0;0;6;0;1899;2;0;0;0;0;0;7;0;1761;0;0;0;0;8;0;1785;0;0;0;0;9;0;881;0;0;0;0
23.01.18;17:50:00;1;672;7697;0;2;0;1726;0;0;0;0;3;0;978;0;0;0;0;4;0;1273;0;0;0;0;5;0;2272;2;0;0;0;0;0;6;0;1899;2;0;0;0;0;0;7;0;1761;0;0;0;0;8;0;1785;0;0;0;0;9;0;881;0;0;0;0
23.01.18;17:45:00;1;973;7640;0;2;0;1726;0;0;0;0;3;0;978;0;0;0;0;4;0;1273;0;0;0;0;5;0;2272;2;0;0;0;0;0;6;0;1899;2;0;0;0;0;0;7;0;1761;0;0;0;0;8;0;1785;0;0;0;0;9;0;881;0;0;0;0
23.01.18;17:40:00;1;575;7554;0;2;0;1726;0;0;0;0;3;0;978;0;0;0;0;4;0;1273;0;0;0;0;5;0;2272;2;0;0;0;0;0;6;0;1899;2;0;0;0;0;0;7;0;1761;0;0;0;0;8;0;1785;0;0;0;0;9;0;881;0;0;0;0
23.01.18;17:35:00;1;568;7507;0;2;0;1726;0;0;0;0;3;0;978;0;0;0;0;4;0;1273;0;0;0;0;5;0;2272;2;0;0;0;0;0;6;0;1899;2;0;0;0;0;0;7;0;1761;0;0;0;0;8;0;1785;0;0;0;0;9;0;881;0;0;0;0
23.01.18;17:30:00;1;1106;7457;0;2;0;1726;0;0;0;0;3;0;978;0;0;0;0;4;0;1273;0;0;0;0;5;0;2272;2;0;0;0;0;0;6;0;1899;2;0;0;0;0;0;7;0;1761;0;0;0;0;8;0;1785;0;0;0;0;9;0;881;0;0;0;0
23.01.18;17:25:00;1;674;7363;0;2;0;1726;0;0;0;0;3;0;978;0;0;0;0;4;0;1273;0;0;0;0;5;0;2272;2;0;0;0;0;0;6;0;1899;2;0;0;0;0;0;7;0;1761;0;0;0;0;8;0;1785;0;0;0;0;9;0;881;0;0;0;0
23.01.18;17:20:00;1;799;7306;0;2;0;1726;0;0;0;0;3;0;978;0;0;0;0;4;0;1273;0;0;0;0;5;0;2272;2;0;0;0;0;0;6;0;1899;2;0;0;0;0;0;7;0;1761;0;0;0;0;8;0;1785;0;0;0;0;9;0;881;0;0;0;0
23.01.18;17:15:00;1;428;7242;0;2;0;1726;0;0;0;0;3;0;978;0;0;0;0;4;0;1273;0;0;0;0;5;0;2272;2;0;0;0;0;0;6;0;1899;2;0;0;0;0;0;7;0;1761;0;0;0;0;8;0;1785;0;0;0;0;9;0;881;0;0;0;0
23.01.18;17:10:00;1;635;7206;0;2;0;1726;0;0;0;0;3;0;978;0;0;36;1;4;0;1273;0;0;0;0;5;0;2272;2;0;0;0;0;0;6;0;1899;2;0;0;0;0;0;7;0;1761;0;0;0;0;8;0;1785;0;0;0;0;9;0;881;0;0;0;0
23.01.18;17:05:00;1;430;7142;0;2;0;1726;0;0;175;6;3;0;978;6;0;287;12;4;0;1273;0;0;10;1;5;0;2272;2;0;0;0;0;0;6;0;1899;2;0;0;0;0;0;7;0;1761;0;0;0;0;8;0;1785;0;0;0;0;9;0;881;0;0;0;0
23.01.18;17:00:00;1;618;7105;0;2;0;1726;6;0;299;9;3;0;978;6;0;342;12;4;0;1273;2;0;83;8;5;0;2272;2;121;119;8;8;2;6;0;1899;1;0;0;0;0;0;7;0;1761;0;0;0;0;8;0;1785;0;0;0;0;9;0;881;0;0;0;0
23.01.18;16:55:00;1;301;7044;0;2;0;1726;6;0;330;9;3;0;978;6;0;403;12;4;0;1273;1;0;116;8;5;0;2272;26;0;1;258;291;15;6;0;1899;2;6;2;144;318;14;7;0;1761;0;0;50;2;8;0;1785;0;0;100;4;9;0;881;0;0;210;6
23.01.18;16:50:00;1;891;7018;0;2;0;1726;6;0;353;9;3;0;978;4;0;413;12;4;0;1273;1;0;144;8;5;0;2272;23;3;1;386;403;19;6;0;1899;23;7;2;181;501;18;7;0;1761;6;0;280;12;8;0;1785;6;0;284;11;9;0;881;6;0;303;8
23.01.18;16:45:00;1;252;6970;0;2;0;1726;6;0;373;9;3;0;978;3;4;425;12;4;0;1273;1;0;176;8;5;0;2272;23;0;2;411;545;20;6;0;1899;23;7;3;181;544;18;7;0;1761;6;0;336;12;8;0;1785;6;0;342;12;9;0;881;6;0;362;8
23.01.18;16:40:00;1;754;6948;0;2;0;1726;6;0;394;9;3;0;978;6;3;479;12;4;0;1273;1;0;213;9;5;7;2272;1;0;4;415;652;20;6;0;1899;23;7;4;397;574;19;7;0;1761;6;0;407;12;8;0;1785;6;0;413;12;9;0;881;6;0;430;9
23.01.18;16:35:00;1;229;6900;0;2;0;1726;6;0;406;9;3;2;978;6;5;489;12;4;0;1273;3;0;217;9;5;58;2271;1;11;15;395;638;21;6;0;1899;8;6;1;482;586;19;7;0;1761;3;2;410;12;8;0;1785;4;0;426;12;9;0;881;6;0;470;9
23.01.18;16:30:00;1;674;6880;0;2;1;1726;6;6;407;9;3;1;978;6;4;506;12;4;0;1273;3;0;227;9;5;84;2266;4;26;24;386;626;21;6;0;1899;1;8;3;554;595;20;7;0;1761;6;1;452;12;8;3;1785;6;4;434;12;9;0;881;6;1;500;9
23.01.18;16:25:00;1;185;6834;0;2;3;1726;6;7;406;9;3;2;978;6;6;506;12;4;0;1273;3;0;229;9;5;91;2259;4;31;31;386;626;21;6;20;1899;1;19;13;293;286;20;7;1;1761;6;3;455;13;8;0;1785;6;4;457;12;9;3;881;3;5;471;9
23.01.18;16:20:00;1;652;6819;0;2;2;1726;6;5;405;9;3;0;978;6;4;496;12;4;0;1273;3;0;214;10;5;83;2251;4;24;27;386;626;21;6;0;1897;23;5;3;591;595;20;7;0;1761;6;1;448;13;8;1;1785;6;1;455;12;9;1;881;6;2;498;9
23.01.18;16:15:00;1;185;6776;0;2;9;1726;6;20;396;9;3;4;978;3;14;480;13;4;0;1273;3;0;207;10;5;98;2244;4;37;35;386;626;21;6;55;1897;4;37;19;472;246;21;7;1;1761;6;2;459;13;8;3;1785;6;3;459;13;9;0;880;6;3;507;9
23.01.18;16:10:00;1;424;6760;0;2;6;1725;6;10;416;10;3;3;977;6;6;524;13;4;2;1273;3;2;199;10;5;131;2236;4;52;48;386;626;21;6;70;1893;4;66;36;472;246;21;7;1;1761;6;6;478;13;8;0;1785;6;6;480;13;9;1;880;6;8;501;9
23.01.18;16:05:00;1;186;6717;0;2;32;1724;6;46;388;10;3;5;977;6;10;524;13;4;10;1273;3;10;198;10;5;158;2225;4;63;57;386;626;21;6;85;1887;4;60;33;472;246;21;7;3;1760;4;8;478;13;8;4;1785;4;8;477;13;9;2;880;6;5;528;9
23.01.18;16:00:00;1;441;6701;0;2;106;1722;4;133;371;10;3;44;977;6;67;499;13;4;61;1272;3;63;198;10;5;267;2211;4;119;121;386;626;21;6;140;1879;4;78;40;471;246;21;7;75;1760;4;107;432;14;8;74;1784;4;107;425;13;9;5;880;6;8;557;9
23.01.18;15:55:00;1;186;6658;0;2;153;1713;4;184;386;10;3;88;973;4;125;473;13;4;107;1267;5;111;224;10;5;342;2188;4;160;161;386;626;21;6;184;1867;4;108;60;472;246;21;7;146;1754;4;171;444;14;8;144;1778;4;171;404;13;9;80;880;4;101;479;10
23.01.18;15:50:00;1;459;6642;0;2;198;1701;4;228;385;10;3;117;966;4;153;504;13;4;145;1258;5;151;229;10;5;403;2159;4;189;189;386;626;21;6;217;1852;4;137;74;472;246;21;7;183;1742;4;217;418;14;8;185;1767;4;217;418;13;9;100;873;4;125;496;10
23.01.18;15:45:00;1;226;6598;0;2;215;1684;4;245;386;10;3;126;956;4;164;516;13;4;164;1247;5;171;233;10;5;423;2125;4;201;199;386;626;21;6;229;1833;4;152;81;472;246;21;7;212;1727;4;247;452;14;8;214;1751;4;249;449;13;9;115;865;4;141;507;10
23.01.18;15:40:00;1;488;6576;0;2;159;1666;4;186;369;10;3;88;946;4;128;507;13;4;114;1233;5;119;213;10;5;330;2090;4;149;155;386;626;21;6;183;1814;4;117;63;472;246;21;7;146;1710;4;182;468;14;8;144;1733;4;180;475;13;9;67;855;4;81;512;9
23.01.18;15:35:00;1;212;6533;0;2;119;1653;4;149;375;10;3;62;938;4;102;481;13;4;72;1223;3;74;199;10;5;278;2063;4;123;130;386;626;21;6;154;1799;4;110;59;472;246;21;7;104;1697;4;133;446;14;8;97;1721;4;131;446;13;9;10;849;6;14;556;9
23.01.18;15:30:00;1;693;6515;0;2;166;1643;4;196;383;11;3;95;933;4;134;501;13;4;121;1217;3;126;219;10;5;359;2039;4;172;173;386;618;21;6;206;1786;4;113;57;501;246;21;7;142;1689;4;177;442;14;8;145;1713;4;173;429;13;9;69;849;6;86;496;10
23.01.18;15:25:00;1;250;6466;0;2;207;1629;4;239;389;11;3;123;925;4;162;503;13;4;161;1207;5;168;226;10;5;436;2009;4;203;203;397;608;21;6;266;1768;4;154;72;576;246;21;7;182;1677;4;225;471;14;8;200;1701;4;231;452;13;9;106;843;4;129;497;10
23.01.18;15:20:00;1;526;6443;0;2;287;1612;4;319;394;11;3;171;915;4;213;519;13;4;238;1194;5;248;234;10;5;565;1971;4;239;280;393;631;21;6;355;1745;4;246;109;588;246;21;7;302;1662;4;341;475;14;8;310;1684;4;348;472;13;9;165;835;4;194;521;10
23.01.18;15:15:00;1;251;6397;0;2;304;1588;4;336;397;11;3;188;901;4;224;507;13;4;247;1174;5;257;232;10;5;593;1924;4;278;285;415;657;21;6;364;1716;4;296;136;585;246;21;7;339;1637;4;368;478;14;8;339;1659;4;377;467;13;9;185;821;4;216;521;10
23.01.18;15:10:00;1;723;6373;0;2;272;1563;4;303;381;11;3;166;885;4;208;507;13;4;222;1153;5;231;234;10;5;530;1875;4;241;262;409;662;21;6;305;1685;4;206;108;485;246;21;7;314;1608;4;349;478;14;8;303;1630;4;345;487;13;9;171;805;4;200;520;10
23.01.18;15:05:00;1;250;6327;0;2;224;1540;4;256;389;11;3;128;871;4;167;519;13;4;179;1135;5;186;230;10;5;455;1831;4;200;223;409;638;21;6;253;1660;4;154;80;472;246;21;7;253;1581;4;295;462;14;8;266;1605;4;297;457;13;9;137;791;4;167;519;10
23.01.18;15:00:00;1;486;6298;0;2;240;1521;4;273;384;11;3;146;860;4;184;512;13;4;192;1120;5;200;228;10;5;463;1793;4;196;239;380;641;21;6;271;1639;4;182;94;472;246;21;7;269;1560;4;306;476;14;8;279;1582;4;317;469;13;9;150;779;4;177;521;10
23.01.18;14:55:00;1;193;6257;0;2;220;1501;4;252;386;11;3;130;848;4;166;507;13;4;173;1104;5;180;231;10;5;427;1755;4;190;217;386;623;21;6;250;1616;4;154;80;472;246;21;7;230;1538;4;271;466;14;8;232;1559;4;266;475;13;9;129;767;4;153;512;10
23.01.18;14:50:00;1;462;6228;0;2;249;1482;4;280;389;11;3;152;837;4;187;495;13;4;202;1089;5;210;233;10;5;473;1719;4;204;247;386;635;21;6;284;1595;4;159;86;472;246;21;7;271;1518;4;305;463;14;8;274;1539;4;306;465;13;9;142;756;4;171;525;10
23.01.18;14:45:00;1;245;6195;0;2;238;1462;4;269;385;11;3;139;824;4;179;520;13;4;190;1073;5;198;233;10;5;450;1679;4;191;233;386;642;21;6;268;1571;4;184;101;472;246;21;7;260;1496;4;298;472;14;8;266;1517;4;302;472;13;9;143;744;4;169;517;10
23.01.18;14:40:00;1;451;6161;0;2;193;1442;4;225;382;11;3;111;813;4;151;513;14;4;147;1057;5;153;226;10;5;358;1643;4;146;188;386;619;21;6;280;1549;4;179;159;489;421;21;7;190;1475;4;216;458;14;8;186;1495;4;220;463;13;9;100;732;4;126;511;10
23.01.18;14:35:00;1;193;6130;0;2;221;1426;4;255;384;11;3;136;804;4;172;485;13;4;172;1045;5;179;230;10;5;399;1613;4;165;210;388;635;21;6;371;1525;4;216;218;580;557;21;7;216;1458;4;233;451;14;8;197;1479;4;236;452;13;9;106;724;4;133;507;10
23.01.18;14:30:00;1;421;6097;0;2;271;1407;4;302;384;11;3;164;792;4;205;511;14;4;222;1030;5;231;232;10;5;479;1579;4;194;247;421;664;21;6;440;1493;4;226;236;564;555;21;7;271;1440;4;309;479;14;8;271;1463;4;313;476;13;9;151;715;4;178;504;10
23.01.18;14:25:00;1;202;6071;0;2;283;1385;4;315;387;11;3;172;778;4;208;505;14;4;228;1012;5;237;232;10;5;459;1540;4;192;252;388;615;21;6;452;1456;4;204;208;571;553;21;7;289;1418;4;322;461;14;8;287;1440;4;326;462;13;9;151;703;4;182;524;10
23.01.18;14:20:00;1;426;6037;0;2;297;1361;4;330;390;11;3;184;764;4;221;495;14;4;245;993;5;255;234;10;5;489;1501;4;197;252;409;643;21;6;481;1418;4;256;255;588;561;21;7;295;1394;4;331;470;14;8;302;1416;4;339;479;13;9;166;690;4;192;512;10
23.01.18;14:15:00;1;257;6012;0;2;357;1337;4;392;398;11;3;220;749;4;261;507;14;4;294;972;5;306;233;10;5;569;1460;4;233;300;395;700;21;6;562;1377;4;260;264;586;565;21;7;363;1370;4;394;470;14;8;360;1391;4;397;476;13;9;195;676;4;223;507;10
23.01.18;14:10:00;1;463;5974;0;2;357;1307;4;392;401;11;3;222;731;4;265;512;14;4;302;948;5;314;234;10;5;573;1411;4;234;294;423;694;21;6;580;1329;4;308;312;587;565;21;7;409;1339;4;454;472;14;8;418;1361;4;455;481;13;9;226;660;4;259;518;10
23.01.18;14:05:00;1;289;5950;0;2;321;1277;4;356;399;11;3;173;712;4;235;483;14;4;264;922;5;275;236;10;5;505;1364;4;208;262;417;667;21;6;516;1281;4;263;267;583;555;21;7;349;1305;4;394;473;14;8;356;1326;4;397;479;13;9;194;641;4;224;511;10
23.01.18;14:00:00;1;416;5912;0;2;366;1250;4;400;397;11;3;225;699;4;267;499;14;4;304;900;5;317;234;10;5;546;1323;4;229;286;419;687;20;6;578;1238;4;296;306;577;566;20;7;376;1276;4;411;470;14;8;378;1296;4;418;477;13;9;206;625;4;236;513;10
23.01.18;13:55:00;1;379;5889;0;2;459;1220;4;498;400;11;3;286;680;4;333;513;14;4;395;875;5;412;238;10;5;669;1276;4;275;353;430;713;20;6;728;1189;4;366;380;602;568;20;7;485;1244;4;531;471;13;8;501;1265;4;533;475;13;9;261;608;4;299;527;10
23.01.18;13:50:00;1;461;5848;0;2;449;1182;4;487;402;12;3;278;657;4;324;517;14;4;384;843;5;399;238;10;5;638;1221;4;254;326;433;685;20;6;686;1129;4;347;362;601;565;20;7;445;1205;4;488;474;13;8;450;1225;4;490;475;13;9;241;587;4;275;512;10
23.01.18;13:45:00;1;226;5821;0;2;612;1145;4;657;406;12;3;386;634;4;434;513;14;4;529;811;5;551;241;10;5;836;1168;4;339;435;439;730;20;6;939;1071;4;465;479;613;574;20;7;650;1168;4;697;473;13;8;655;1187;4;705;481;13;9;353;566;4;390;514;10